DELTA 1 DEB, 10710

Orbit data source: Space-Track

DELTA 1 DEB, 10710 is space debris in LEO originally from a launch on Thu, 29 Jul 1976 UTC launched from the Air Force Western Test Range (AFWTR). Debris objects in space refer to the collection of defunct objects orbiting the Earth. Examples of debris include non-operational satellites, rocket bodies, and fragments generated from explosions, collisions, or faulty payload assembly.

Loading next visibility...
Identifier
10710, 1976-077AF
Orbit
LEO
Country
Flag of USUS
Related business
Manufacturer
Unknown
Mission
Spacecraft
Bus & Motor
Unknown
Mass
Unknown
Launch date (UTC)
1976-07-29 (49 years ago)
Launch vehicle
Unknown
Launch site
Air Force Western Test Range (AFWTR)
Object type
Payload
Rocket body
Debris
Shape & HBR
Unknown
Radar Cross Section
Small (<0.1 m²)

Expand to show TLE details & history
Last TLE update: 18 hours ago

TLE from 18 hours ago
0 DELTA 1 DEB
1 10710U 76077AF  25242.27413661  .00000475  00000-0  58276-2 0  9997
2 10710 101.7659  61.9720 0260320 198.7430 344.7893 11.99147477117906
Epoch: 2025-08-30T06:34Z
TLE epoch observation values (Epoch: 2025-08-30T06:34:45.403Z)
Latitude
-2.786°
Longitude
163.99413°
Altitude
1,485.412 km
Speed
7.21 km/s
True Right ascension
16h 05m 34s
True Declination
-2° 46' 15"
Sunlit
Object was in daylight at epoch
Visualization orbit readout
Latitude
Unknown
Longitude
Unknown
Altitude
Unknown
Speed
Unknown
Apparent Right ascension
Unknown
Apparent Declination
Unknown
Sunlit
N/A
Visualization observer readout
Local Sidereal Time
16:42:04
Azimuth
Unknown
Elevation
Unknown
Doppler factor
Unknown
Orbital elements
Apogee altitude
1,892.121 km
Perigee altitude
1,472.463 km
Semi-major axis
8,060.429 km
Eccentricity
0.02603
Inclination
101.7659°
RAAN
61.972°
Arg. of periapsis
198.743°
True anomaly
343.98133°
Mean anomaly
344.7893°
Eccentric anomaly
344.3879°
Mean motion
2.9992 °/min
Orbital period
120.03 mins
BSTAR
0.0058276
Loading maneuver chart data...
Computing Atmospheric mass density...
Loading historical data...
Loading historical data...
Loading historical data...
Loading historical data...
Loading historical data...
Loading historical data...
Loading historical data...

Documentation

Showing up to 5 results
|